GLOBALSTAR M040 [-]

Last updated on Fri Dec 29 2023 00:02:56 GMT+0000 (Coordinated Universal Time)

1 25622U 99004B 23362.12612889 -.00000068 00000+0 19818-3 0 9996 2 25622 51.9915 252.0907 0000699 18.4398 128.5963 12.61962843147740

Satellite not in orbit